�������l�o���
Date,Time,MP-1(��Sv/h),MP-2(��Sv/h),MP-3(��Sv/h),MP-4(��Sv/h),MP-5(��Sv/h),MP-6(��Sv/h),MP-7(��Sv/h),MP-8(��Sv/h),����,����(m/s),���J
2021/10/24,00:00,0.574,0.860,0.547,1.053,0.742,0.352,0.613,0.577,���k��,4.5,��
2021/10/24,00:10,0.576,0.859,0.549,1.052,0.742,0.352,0.613,0.578,��,3.6,��
2021/10/24,00:20,0.575,0.860,0.547,1.050,0.743,0.352,0.614,0.577,���쐼,3.2,��
2021/10/24,00:30,0.573,0.858,0.547,1.051,0.742,0.352,0.614,0.577,��,3.9,��
2021/10/24,00:40,0.575,0.859,0.548,1.051,0.742,0.352,0.614,0.576,��,3.2,��
2021/10/24,00:50,0.572,0.857,0.547,1.052,0.745,0.352,0.615,0.577,���쐼,3.2,��
2021/10/24,01:00,0.575,0.859,0.551,1.052,0.741,0.354,0.613,0.576,���쐼,4.2,��
2021/10/24,01:10,0.576,0.859,0.548,1.055,0.742,0.352,0.614,0.577,���쐼,4.0,��
2021/10/24,01:20,0.574,0.857,0.549,1.052,0.743,0.353,0.613,0.579,���쐼,4.8,��
2021/10/24,01:30,0.575,0.858,0.548,1.052,0.742,0.352,0.613,0.576,���쐼,4.6,��
2021/10/24,01:40,0.572,0.858,0.549,1.050,0.741,0.351,0.613,0.578,���쐼,5.6,��
2021/10/24,01:50,0.575,0.861,0.548,1.052,0.741,0.352,0.614,0.578,���쐼,6.1,��
2021/10/24,02:00,0.574,0.859,0.550,1.052,0.740,0.352,0.615,0.577,��,5.5,��
2021/10/24,02:10,0.574,0.859,0.549,1.054,0.741,0.353,0.614,0.577,��,4.0,��
2021/10/24,02:20,0.573,0.859,0.548,1.053,0.744,0.352,0.614,0.576,���k��,3.6,��
2021/10/24,02:30,0.573,0.859,0.547,1.052,0.742,0.351,0.613,0.577,���k��,3.8,��
2021/10/24,02:40,0.574,0.858,0.548,1.051,0.743,0.353,0.615,0.576,���k��,3.8,��
2021/10/24,02:50,0.576,0.858,0.548,1.053,0.743,0.352,0.615,0.576,���k��,4.2,��
2021/10/24,03:00,0.574,0.859,0.548,1.053,0.743,0.353,0.615,0.578,���k��,3.6,��
2021/10/24,03:10,0.574,0.856,0.549,1.053,0.744,0.355,0.615,0.578,���k��,3.8,��
2021/10/24,03:20,0.576,0.857,0.548,1.052,0.740,0.353,0.615,0.576,���k��,4.2,��
2021/10/24,03:30,0.574,0.860,0.547,1.052,0.743,0.351,0.614,0.577,���k��,3.5,��
2021/10/24,03:40,0.574,0.858,0.547,1.053,0.742,0.352,0.615,0.578,���k��,3.1,��
2021/10/24,03:50,0.573,0.860,0.548,1.053,0.742,0.352,0.614,0.576,��,3.0,��
2021/10/24,04:00,0.575,0.859,0.549,1.051,0.742,0.353,0.614,0.576,���k��,3.5,��
2021/10/24,04:10,0.574,0.859,0.548,1.053,0.744,0.355,0.614,0.577,��,2.5,��
2021/10/24,04:20,0.573,0.859,0.548,1.052,0.741,0.352,0.614,0.577,���k��,3.1,��
2021/10/24,04:30,0.575,0.860,0.548,1.054,0.741,0.353,0.614,0.576,��,2.9,��
2021/10/24,04:40,0.573,0.858,0.547,1.053,0.742,0.352,0.615,0.575,���k��,4.1,��
2021/10/24,04:50,0.573,0.857,0.550,1.052,0.743,0.353,0.614,0.579,��,3.7,��
2021/10/24,05:00,0.574,0.857,0.549,1.054,0.742,0.354,0.614,0.577,��,3.4,��
2021/10/24,05:10,0.575,0.860,0.547,1.052,0.743,0.352,0.614,0.577,���쐼,4.1,��
2021/10/24,05:20,0.575,0.858,0.548,1.054,0.742,0.352,0.615,0.579,���쐼,3.4,��
2021/10/24,05:30,0.575,0.859,0.546,1.050,0.743,0.354,0.614,0.578,���쐼,3.0,��
2021/10/24,05:40,0.575,0.859,0.549,1.052,0.743,0.352,0.614,0.577,���쐼,3.5,��
2021/10/24,05:50,0.574,0.860,0.549,1.053,0.742,0.353,0.613,0.579,���쐼,2.5,��
2021/10/24,06:00,0.574,0.858,0.548,1.052,0.741,0.353,0.616,0.577,���쐼,2.2,��
2021/10/24,06:10,0.573,0.857,0.548,1.052,0.743,0.352,0.614,0.577,���쐼,2.3,��
2021/10/24,06:20,0.574,0.859,0.550,1.054,0.741,0.353,0.613,0.576,��,4.1,��
2021/10/24,06:30,0.574,0.860,0.549,1.054,0.742,0.352,0.612,0.577,��,3.5,��
2021/10/24,06:40,0.574,0.858,0.548,1.053,0.743,0.352,0.615,0.576,��,3.9,��
2021/10/24,06:50,0.576,0.859,0.549,1.055,0.744,0.352,0.614,0.577,��,3.6,��
2021/10/24,07:00,0.575,0.860,0.549,1.055,0.742,0.354,0.612,0.577,��,3.7,��
2021/10/24,07:10,0.575,0.858,0.549,1.052,0.742,0.353,0.615,0.578,��,4.9,��
2021/10/24,07:20,0.574,0.859,0.550,1.053,0.742,0.353,0.615,0.577,���쐼,4.5,��
2021/10/24,07:30,0.575,0.861,0.549,1.054,0.743,0.352,0.616,0.577,���쐼,4.5,��
2021/10/24,07:40,0.574,0.858,0.550,1.054,0.743,0.353,0.616,0.578,���쐼,4.3,��
2021/10/24,07:50,0.575,0.861,0.550,1.054,0.742,0.353,0.615,0.578,���쐼,5.0,��
2021/10/24,08:00,0.575,0.862,0.550,1.053,0.742,0.355,0.614,0.578,���쐼,4.0,��
2021/10/24,08:10,0.576,0.858,0.550,1.053,0.745,0.355,0.616,0.578,��,3.1,��
2021/10/24,08:20,0.576,0.859,0.551,1.054,0.743,0.353,0.615,0.578,���k��,2.9,��
2021/10/24,08:30,0.575,0.858,0.550,1.054,0.742,0.354,0.614,0.578,��,2.8,��
2021/10/24,08:40,0.576,0.858,0.548,1.054,0.743,0.354,0.614,0.578,���쐼,2.6,��
2021/10/24,08:50,0.576,0.860,0.551,1.053,0.744,0.353,0.613,0.579,��,2.6,��
2021/10/24,09:00,0.577,0.861,0.550,1.053,0.743,0.355,0.614,0.578,��,2.2,��
2021/10/24,09:10,0.577,0.857,0.552,1.056,0.745,0.355,0.613,0.578,��,2.3,��
2021/10/24,09:20,0.576,0.860,0.550,1.057,0.745,0.355,0.614,0.579,�k��,1.7,��
2021/10/24,09:30,0.575,0.859,0.550,1.053,0.744,0.354,0.613,0.578,�k��,1.9,��
2021/10/24,09:40,0.576,0.859,0.551,1.055,0.744,0.354,0.613,0.579,�k��,4.3,��
2021/10/24,09:50,0.574,0.860,0.551,1.053,0.744,0.352,0.614,0.578,�k��,3.1,��
2021/10/24,10:00,0.576,0.863,0.552,1.056,0.743,0.353,0.615,0.578,�k��,3.3,��
2021/10/24,10:10,0.575,0.862,0.550,1.054,0.743,0.352,0.615,0.577,��,3.0,��
2021/10/24,10:20,0.576,0.863,0.551,1.057,0.741,0.353,0.614,0.577,���쐼,3.6,��
2021/10/24,10:30,0.576,0.861,0.550,1.057,0.743,0.352,0.614,0.577,�k��,2.6,��
2021/10/24,10:40,0.577,0.862,0.550,1.057,0.743,0.352,0.614,0.579,���k��,1.9,��
2021/10/24,10:50,0.576,0.863,0.551,1.054,0.744,0.354,0.614,0.576,���쐼,1.2,��
2021/10/24,11:00,0.578,0.864,0.550,1.055,0.743,0.352,0.613,0.577,���쓌,2.2,��
2021/10/24,11:10,0.577,0.864,0.551,1.057,0.745,0.354,0.615,0.579,�쓌,3.1,��
2021/10/24,11:20,0.577,0.864,0.550,1.058,0.746,0.353,0.614,0.579,��쓌,3.4,��
2021/10/24,11:30,0.578,0.864,0.552,1.057,0.746,0.354,0.615,0.579,�쓌,2.6,��
2021/10/24,11:40,0.576,0.866,0.551,1.057,0.743,0.351,0.614,0.579,�쓌,3.8,��
2021/10/24,11:50,0.578,0.863,0.552,1.056,0.745,0.352,0.614,0.577,�쓌,3.6,��
2021/10/24,12:00,0.577,0.865,0.551,1.056,0.747,0.354,0.614,0.579,��쓌,3.6,��
2021/10/24,12:10,0.578,0.866,0.551,1.057,0.745,0.354,0.615,0.577,��쓌,3.6,��
2021/10/24,12:20,0.576,0.864,0.553,1.056,0.746,0.355,0.614,0.575,�쓌,3.6,��
2021/10/24,12:30,0.578,0.864,0.550,1.058,0.746,0.353,0.612,0.576,�쓌,4.3,��
2021/10/24,12:40,0.577,0.864,0.550,1.056,0.746,0.355,0.614,0.576,�쓌,5.1,��
2021/10/24,12:50,0.577,0.865,0.550,1.056,0.746,0.355,0.614,0.576,��쓌,4.5,��
2021/10/24,13:00,0.578,0.866,0.551,1.057,0.746,0.354,0.614,0.577,��쓌,4.6,��
2021/10/24,13:10,0.579,0.865,0.552,1.057,0.748,0.352,0.614,0.578,�쓌,4.6,��
2021/10/24,13:20,0.577,0.864,0.550,1.058,0.747,0.353,0.615,0.576,��쓌,4.6,��
2021/10/24,13:30,0.577,0.866,0.551,1.058,0.746,0.351,0.615,0.576,�쓌,4.3,��
2021/10/24,13:40,0.579,0.866,0.551,1.057,0.747,0.352,0.614,0.578,��쓌,5.0,��
2021/10/24,13:50,0.578,0.865,0.551,1.057,0.748,0.352,0.614,0.577,��쓌,5.8,��
2021/10/24,14:00,0.581,0.864,0.551,1.057,0.749,0.354,0.614,0.578,��쓌,5.6,��
2021/10/24,14:10,0.578,0.867,0.550,1.057,0.749,0.354,0.615,0.578,��쓌,4.9,��
2021/10/24,14:20,0.580,0.864,0.552,1.061,0.748,0.353,0.615,0.578,��쓌,5.3,��
2021/10/24,14:30,0.579,0.864,0.552,1.058,0.749,0.354,0.614,0.577,��쓌,4.9,��
2021/10/24,14:40,0.579,0.865,0.552,1.058,0.748,0.354,0.614,0.577,��쓌,5.5,��
2021/10/24,14:50,0.577,0.866,0.551,1.056,0.748,0.355,0.614,0.576,��쓌,5.4,��
2021/10/24,15:00,0.577,0.864,0.550,1.057,0.747,0.354,0.615,0.576,��쓌,4.8,��
2021/10/24,15:10,0.579,0.866,0.552,1.060,0.747,0.353,0.613,0.577,��쓌,4.7,��
2021/10/24,15:20,0.580,0.866,0.552,1.057,0.747,0.355,0.615,0.576,��쓌,5.5,��
2021/10/24,15:30,0.578,0.864,0.552,1.059,0.748,0.354,0.615,0.577,��쓌,4.3,��
2021/10/24,15:40,0.579,0.865,0.552,1.058,0.749,0.352,0.614,0.577,��쓌,4.8,��
2021/10/24,15:50,0.578,0.866,0.553,1.060,0.750,0.354,0.615,0.576,��쓌,4.1,��
2021/10/24,16:00,0.578,0.866,0.552,1.058,0.749,0.356,0.614,0.577,��쓌,4.1,��
2021/10/24,16:10,0.578,0.864,0.552,1.058,0.748,0.356,0.615,0.579,��,3.9,��
2021/10/24,16:20,0.577,0.866,0.551,1.059,0.750,0.356,0.615,0.580,��,4.3,��
2021/10/24,16:30,0.577,0.868,0.551,1.058,0.747,0.356,0.615,0.579,��,5.3,��
2021/10/24,16:40,0.578,0.867,0.551,1.057,0.748,0.356,0.616,0.579,��,4.8,��
2021/10/24,16:50,0.577,0.871,0.551,1.059,0.750,0.357,0.616,0.579,��,5.9,��
2021/10/24,17:00,0.578,0.869,0.551,1.057,0.749,0.357,0.614,0.579,��,5.3,��
2021/10/24,17:10,0.577,0.868,0.554,1.058,0.747,0.354,0.615,0.578,��,5.7,��
2021/10/24,17:20,0.580,0.868,0.554,1.058,0.750,0.355,0.616,0.580,��,6.1,��
2021/10/24,17:30,0.580,0.868,0.554,1.059,0.751,0.356,0.615,0.578,��쐼,5.2,��
2021/10/24,17:40,0.582,0.869,0.553,1.059,0.751,0.354,0.617,0.580,��쐼,4.3,��
2021/10/24,17:50,0.581,0.868,0.553,1.059,0.751,0.355,0.616,0.580,��쐼,4.3,��
2021/10/24,18:00,0.579,0.869,0.554,1.058,0.748,0.355,0.616,0.578,��쐼,4.3,��
2021/10/24,18:10,0.580,0.867,0.552,1.058,0.752,0.355,0.614,0.579,�쐼,3.5,��
2021/10/24,18:20,0.580,0.867,0.552,1.058,0.751,0.355,0.615,0.579,��,3.8,��
2021/10/24,18:30,0.580,0.869,0.555,1.057,0.749,0.354,0.616,0.579,��,4.4,��
2021/10/24,18:40,0.578,0.868,0.552,1.058,0.749,0.354,0.615,0.578,��,4.9,��
2021/10/24,18:50,0.581,0.869,0.553,1.061,0.748,0.355,0.615,0.578,���k��,4.0,��
2021/10/24,19:00,0.580,0.868,0.553,1.059,0.748,0.355,0.614,0.579,��,3.0,��
2021/10/24,19:10,0.579,0.865,0.554,1.059,0.750,0.355,0.616,0.580,��,4.0,��
2021/10/24,19:20,0.580,0.868,0.552,1.057,0.750,0.353,0.614,0.579,��,3.3,��
2021/10/24,19:30,0.580,0.868,0.554,1.060,0.750,0.355,0.616,0.578,���k��,3.1,��
2021/10/24,19:40,0.580,0.868,0.553,1.058,0.749,0.355,0.616,0.580,��,3.1,��
2021/10/24,19:50,0.579,0.867,0.552,1.059,0.750,0.353,0.615,0.579,��,2.6,��
2021/10/24,20:00,0.581,0.868,0.553,1.060,0.750,0.354,0.614,0.579,��,2.0,��
2021/10/24,20:10,0.579,0.867,0.553,1.059,0.749,0.354,0.616,0.579,�k��,1.7,��
2021/10/24,20:20,0.582,0.869,0.554,1.058,0.749,0.355,0.616,0.580,�k��,1.2,��
2021/10/24,20:30,0.579,0.867,0.555,1.058,0.748,0.355,0.615,0.579,�k��,0.6,��
2021/10/24,20:40,0.579,0.867,0.554,1.059,0.749,0.354,0.614,0.578,���k��,0.9,��
2021/10/24,20:50,0.579,0.867,0.553,1.059,0.750,0.355,0.615,0.578,���k��,2.2,��
2021/10/24,21:00,0.578,0.867,0.553,1.058,0.749,0.354,0.614,0.580,��,1.7,��
2021/10/24,21:10,0.578,0.865,0.553,1.056,0.749,0.355,0.614,0.578,��,1.9,��
2021/10/24,21:20,0.579,0.868,0.553,1.059,0.749,0.354,0.614,0.578,���k��,2.3,��
2021/10/24,21:30,0.579,0.866,0.552,1.057,0.749,0.355,0.615,0.579,��,2.0,��
2021/10/24,21:40,0.579,0.866,0.553,1.057,0.750,0.353,0.613,0.579,���쐼,2.3,��
2021/10/24,21:50,0.579,0.869,0.551,1.057,0.748,0.355,0.614,0.578,���쐼,1.9,��
2021/10/24,22:00,0.578,0.867,0.552,1.058,0.750,0.354,0.615,0.578,�쐼,1.7,��
2021/10/24,22:10,0.579,0.865,0.554,1.060,0.748,0.354,0.613,0.579,��쐼,2.6,��
2021/10/24,22:20,0.578,0.866,0.554,1.058,0.749,0.354,0.614,0.578,��쐼,3.2,��
2021/10/24,22:30,0.581,0.866,0.553,1.060,0.749,0.355,0.616,0.579,��쐼,3.6,��
2021/10/24,22:40,0.577,0.866,0.552,1.059,0.749,0.354,0.615,0.578,��쐼,3.5,��
2021/10/24,22:50,0.579,0.867,0.552,1.060,0.748,0.353,0.614,0.578,�쐼,3.1,��
2021/10/24,23:00,0.580,0.866,0.554,1.060,0.751,0.353,0.614,0.580,��쐼,3.4,��
2021/10/24,23:10,0.579,0.867,0.552,1.057,0.749,0.355,0.614,0.580,��쐼,3.9,��
2021/10/24,23:20,0.580,0.867,0.551,1.059,0.750,0.354,0.616,0.579,�쐼,3.7,��
2021/10/24,23:30,0.578,0.865,0.552,1.059,0.750,0.352,0.615,0.579,��쐼,3.4,��
2021/10/24,23:40,0.578,0.866,0.551,1.059,0.749,0.355,0.613,0.579,��쐼,3.1,��
2021/10/24,23:50,0.578,0.868,0.551,1.060,0.748,0.355,0.613,0.579,�쐼,3.2,��
